CZ-6A DEB, 60622

Orbit data source: Space-Track

CZ-6A DEB, 60622 is space debris in LEO originally from a launch on Tue, 06 Aug 2024 UTC launched from the Taiyaun Space Center, China (TSC). Debris objects in space refer to the collection of defunct objects orbiting the Earth. Examples of debris include non-operational satellites, rocket bodies, and fragments generated from explosions, collisions, or faulty payload assembly.

Loading next visibility...
Identifier
60622, 2024-140X
Orbit
LEO
Country
Flag of CNCN / PRC
Related business
Manufacturer
SAST
Mission
Spacecraft
Bus & Motor
Unknown
Mass
Unknown
Launch date (UTC)
2024-08-06 (2 years ago)
Launch vehicle
Unknown
Launch site
Taiyaun Space Center, China (TSC)
Object type
Payload
Rocket body
Debris
Shape & HBR
Unknown shape, 0.2 m
Radar Cross Section
Medium (>0.1 m² and <1 m²)

Expand to show TLE details & history
Last TLE update: 14 hours ago

TLE from 14 hours ago
0 CZ-6A DEB
1 60622U 24140X   26171.28065528  .00000677  00000-0  14992-3 0  9998
2 60622  89.0108 270.9840 0101959 263.7976  95.1610 14.52907923 98998
Epoch: 2026-06-20T06:44Z
TLE epoch observation values (Epoch: 2026-06-20T06:44:08.616Z)
Latitude
0.00001°
Longitude
-98.54944°
Altitude
726.506 km
Speed
7.488 km/s
True Right ascension
18h 03m 56s
True Declination
0° 00' 00"
Sunlit
Object was in full shadow at epoch
Visualization orbit readout
Latitude
Unknown
Longitude
Unknown
Altitude
Unknown
Speed
Unknown
Apparent Right ascension
Unknown
Apparent Declination
Unknown
Sunlit
N/A
Visualization observer readout
Local Sidereal Time
07:14:09
Azimuth
Unknown
Elevation
Unknown
Doppler factor
Unknown
Orbital elements
Apogee altitude
785.372 km
Perigee altitude
640.769 km
Semi-major axis
7,091.207 km
Eccentricity
0.0102
Inclination
89.0108°
RAAN
270.984°
Arg. of periapsis
263.7976°
True anomaly
96.32322°
Mean anomaly
95.161°
Eccentric anomaly
95.74225°
Mean motion
3.63465 °/min
Orbital period
99.05 mins
BSTAR
0.00014992
Loading maneuver chart data...
Computing Atmospheric mass density...
Loading historical data...
Loading historical data...
Loading historical data...
Loading historical data...
Loading historical data...
Loading historical data...
Loading historical data...

Documentation

Showing up to 5 results
|